Location: ?ejeti?ky
(50.4060°N, 14.9016°E)
Time: 21:53:48
(UTC+00:00)

NOSS 2-1 (E) - Pass Details

Date: 07 June 2020
Orbit: 446 x 1757 km, 63.3° (Epoch: 25 June)

Event Time Altitude Azimuth Distance (km) Brightness Sun altitude
Exits shadow 02:05:20 - 243° (WSW) 1,853 5.4 -6.1°
Reaches altitude 10° 02:06:00 10° 246° (WSW) 1,582 5.1 -6.0°
Maximum altitude 02:09:17 46° 322° (NW) 661 3.8 -5.7°
Drops below altitude 10° 02:13:05 10° 37° (NE) 1,829 7.8 -5.2°
Sets 02:15:37 0° 43° (NE) 2,882 10.1 -5.0°
